Powrót do katalogu

RASSVET-3 16

AktywnyNaukaPO
NORAD 68375·PAYLOAD·🇷🇺 Russia

Wystrzelony Mar 23, 2026 z Plesetsk Cosmodrome

Loading…

Następne Przeloty (najbliższe 24 godziny)

TLE

ŚwieżeSource: Space-Track

Epoka: Sep 14, 2026, 01:10 UTC

1 68375U 26061R   26257.04864033  .00002765  00000-0  13311-3 0  9996
2 68375  82.2895 281.6689 0002768  81.7165 278.4382 15.18382043 27048

Śledź RASSVET-3 16 w czasie rzeczywistym z AllMySat

Download on the App Store